Hoquiam, WA
on Wednesday, January 30, 2013

Wednesday
Previous Day Next Day
Daily Summary
 ActualAverageRecord
Temperature
Mean Temperature °F 43°F  
Max Temperature 48°F 48°F 59°F (1962)
Min Temperature 46°F 38°F 18°F (1969)
Degree Days
Heating Degree Days 18 22  
Month to date heating degree days 671  
Cooling Degree Days 0 0  
Month to date cooling degree days 0  
Year to date cooling degree days 0  
Moisture
Dew Point 47°F   
Average Humidity 98    
Maximum Humidity 100    
Minimum Humidity 93    
Precipitation
Precipitation 0.31 in 0.30 in 1.22 in (1995)
Month to date precipitation 10.03  
Year to date precipitation 10.03  
Wind
Wind Speed 9 mph   
Max Wind Speed 13 mph   
Max Gust Speed mph   
Visibility 3 miles   
Events Rain   

Key: T is trace of precipitation, MM is missing value
Source: NWS Daily Summary
Time(PST)TemperatureDew PointHumidity Pressure Visibility Wind DirectionWind SpeedGust SpeedPrecipitationEvents Conditions
12:53 AM 46.9°F 46.9°F 100% 30.37 in 6.0 miles WSW 11.5 mph - 0.01 in   Overcast
1:21 AM 46.4°F 46.4°F 100% 30.36 in 2.5 miles WSW 12.7 mph - 0.01 in   Overcast
1:31 AM 46.4°F 46.4°F 100% 30.36 in 3.0 miles WSW 11.5 mph - 0.01 in   Overcast
1:53 AM 46.9°F 46.0°F 97% 30.37 in 5.0 miles WSW 9.2 mph - 0.01 in   Overcast
2:53 AM 46.9°F 46.0°F 97% 30.38 in 10.0 miles WSW 8.1 mph - 0.00 in   Overcast
3:53 AM 46.9°F 46.9°F 100% 30.39 in 6.0 miles WSW 8.1 mph - 0.01 in Rain Light Rain
4:49 AM 46.4°F 46.4°F 100% 30.37 in 4.0 miles SW 9.2 mph - 0.04 in Rain Light Rain
4:53 AM 46.9°F 46.0°F 97% 30.38 in 4.0 miles SW 9.2 mph - 0.04 in Rain Light Rain
5:14 AM 46.4°F 46.4°F 100% 30.37 in 4.0 miles SW 8.1 mph - 0.01 in Rain Light Rain
5:53 AM 46.9°F 46.0°F 97% 30.38 in 4.0 miles SW 8.1 mph - 0.03 in Rain Light Rain
6:53 AM 46.9°F 46.0°F 97% 30.39 in 6.0 miles SW 8.1 mph - 0.04 in Rain Light Rain
7:53 AM 46.9°F 46.0°F 97% 30.40 in 4.0 miles SW 8.1 mph - 0.03 in Rain Light Rain
8:46 AM 46.4°F 46.4°F 100% 30.39 in 2.0 miles SW 8.1 mph - 0.04 in Rain Light Rain
8:53 AM 46.0°F 46.0°F 100% 30.41 in 2.0 miles SW 9.2 mph - 0.04 in Rain Light Rain
9:12 AM 46.4°F 46.4°F 100% 30.39 in 3.0 miles SW 8.1 mph - 0.01 in Rain Light Rain
9:24 AM 46.4°F 46.4°F 100% 30.40 in 2.5 miles SW 8.1 mph - 0.02 in Rain Light Rain
9:53 AM 46.9°F 46.9°F 100% 30.41 in 2.5 miles SW 9.2 mph - 0.03 in Rain Light Rain
10:07 AM 46.4°F 46.4°F 100% 30.40 in 3.0 miles SW 8.1 mph - 0.01 in Rain Light Rain
10:29 AM 46.4°F 46.4°F 100% 30.41 in 2.0 miles SW 9.2 mph - 0.01 in Rain Light Rain
10:53 AM 46.9°F 46.9°F 100% 30.42 in 2.0 miles SW 8.1 mph - 0.02 in   Overcast
11:08 AM 48.2°F 48.2°F 100% 30.41 in 3.0 miles SW 10.4 mph - N/A   Overcast
11:29 AM 48.2°F 48.2°F 100% 30.41 in 1.8 miles WSW 10.4 mph - N/A   Overcast
11:53 AM 48.2°F 46.4°F 93% 30.42 in 1.8 miles WSW 11.5 mph - N/A   Overcast
12:04 PM 48.2°F 46.4°F 93% 30.41 in 2.5 miles WSW 10.4 mph - 0.01 in   Overcast
12:30 PM 48.2°F 46.4°F 93% 30.41 in 3.0 miles WSW 8.1 mph - 0.01 in   Overcast
12:45 PM 48.2°F 48.2°F 100% 30.40 in 2.5 miles WSW 9.2 mph - 0.01 in   Overcast
12:53 PM 48.0°F 48.0°F 100% 30.41 in 2.5 miles WSW 9.2 mph - 0.01 in   Overcast
1:21 PM 48.2°F 46.4°F 93% 30.41 in 1.8 miles WSW 10.4 mph - N/A   Overcast
1:53 PM 48.0°F 48.0°F 100% 30.41 in 2.0 miles WSW 8.1 mph - 0.01 in   Overcast
2:10 PM 48.2°F 46.4°F 93% 30.40 in 3.0 miles WSW 9.2 mph - N/A   Overcast
2:30 PM 48.2°F 46.4°F 93% 30.40 in 2.0 miles WSW 8.1 mph - N/A   Overcast
2:53 PM 48.0°F 46.9°F 96% 30.41 in 2.0 miles WSW 9.2 mph - N/A   Overcast
3:30 PM 48.2°F 46.4°F 93% 30.40 in 3.0 miles WSW 10.4 mph - N/A   Overcast
3:44 PM 48.2°F 46.4°F 93% 30.40 in 2.5 miles WSW 9.2 mph - N/A   Overcast
3:53 PM 48.0°F 46.9°F 96% 30.41 in 3.0 miles WSW 9.2 mph - N/A   Overcast
4:10 PM 48.2°F 46.4°F 93% 30.40 in 1.8 miles WSW 9.2 mph - N/A   Overcast
4:24 PM 48.2°F 46.4°F 93% 30.40 in 2.5 miles WSW 8.1 mph - N/A   Overcast
4:41 PM 46.4°F 46.4°F 100% 30.40 in 1.8 miles WSW 9.2 mph - N/A   Overcast
4:53 PM 46.9°F 46.9°F 100% 30.41 in 2.0 miles WSW 6.9 mph - N/A   Overcast
5:23 PM 46.4°F 46.4°F 100% 30.40 in 3.0 miles WSW 8.1 mph - N/A   Overcast
5:53 PM 46.9°F 46.9°F 100% 30.40 in 6.0 miles WSW 8.1 mph - N/A   Overcast
6:53 PM 46.9°F 46.9°F 100% 30.41 in 10.0 miles WSW 9.2 mph - N/A   Overcast
7:36 PM 46.4°F 46.4°F 100% 30.40 in 2.0 miles SW 6.9 mph - N/A   Overcast
7:43 PM 46.4°F 46.4°F 100% 30.40 in 1.8 miles SW 8.1 mph - N/A   Overcast
7:53 PM 46.9°F 46.0°F 97% 30.41 in 1.8 miles SW 6.9 mph - N/A   Overcast
8:26 PM 46.4°F 46.4°F 100% 30.40 in 2.0 miles WSW 8.1 mph - 0.01 in   Overcast
8:53 PM 46.9°F 46.9°F 100% 30.42 in 2.0 miles SW 6.9 mph - 0.01 in   Overcast
9:00 PM 46.4°F 46.4°F 100% 30.41 in 1.5 miles SW 6.9 mph - N/A   Overcast
9:23 PM 46.4°F 46.4°F 100% 30.41 in 2.0 miles SW 8.1 mph - 0.01 in   Overcast
9:32 PM 46.4°F 46.4°F 100% 30.41 in 1.5 miles SW 8.1 mph - 0.01 in   Overcast
9:53 PM 46.9°F 46.0°F 97% 30.42 in 2.5 miles SW 6.9 mph - 0.02 in   Overcast
10:16 PM 46.4°F 46.4°F 100% 30.41 in 4.0 miles SW 5.8 mph - N/A   Overcast
10:22 PM 46.4°F 46.4°F 100% 30.41 in 1.8 miles SW 6.9 mph - N/A   Overcast
10:38 PM 46.4°F 46.4°F 100% 30.41 in 3.0 miles SSW 8.1 mph - 0.00 in Rain Light Rain
10:53 PM 46.0°F 46.0°F 100% 30.42 in 5.0 miles SW 8.1 mph - 0.00 in   Overcast
11:05 PM 46.4°F 46.4°F 100% 30.41 in 6.0 miles SW 6.9 mph - N/A   Overcast
11:53 PM 46.0°F 46.0°F 100% 30.43 in 6.0 miles SSW 8.1 mph - N/A   Overcast
Moon Phase
Jan. 30 Feb. 03 Feb. 10 Feb. 17 Feb. 25
Sunrise:07:42 AM (PST) Moon Rise:09:41 PM (PST)1/30
Sunset:05:16 PM (PST) Moon Set:08:55 AM (PST)1/30

Copyright © 2014 The Weather Underground, Inc.